[Iaude] MPEC S31: 2016 RC41

mpec at si.edu mpec at si.edu
Thu Sep 29 16:10:32 EDT 2016


M.P.E.C. 2016-S31                                Issued 2016 Sept. 24, 18:15 UT
 
     The Minor Planet Electronic Circulars contain information on unusual
         minor planets and routine data on comets.  They are published
    on behalf of Division F of the International Astronomical Union by the
          Minor Planet Center, Smithsonian Astrophysical Observatory,
                          Cambridge, MA 02138, U.S.A.

             Prepared using the Tamkin Foundation Computer Network

                              MPC at CFA.HARVARD.EDU
            URL http://www.minorplanetcenter.net/    ISSN 1523-6714


                                   2016 RC41
 
Observations:
     K16R41C* C2016 09 12.51676 00 00 49.735+10 01 18.24         21.7 wLES031F51
     K16R41C  C2016 09 12.53013 00 00 50.687+10 01 04.49         21.6 wLES031F51
     K16R41C  C2016 09 12.54365 00 00 51.673+10 00 50.52         21.7 wLES031F51
     K16R41C  C2016 09 12.55716 00 00 52.625+10 00 36.53         21.7 wLES031F51
     K16R41C KC2016 09 13.25216400 01 52.03 +09 48 36.6          21.7 VuES031H21
     K16R41C KC2016 09 13.26882800 01 53.22 +09 48 19.0          22.0 VuES031H21
     K16R41C KC2016 09 13.28000600 01 54.01 +09 48 07.7          21.9 VuES031H21
     K16R41C  C2016 09 22.30166 00 12 54.17 +07 07 16.8          21.1 RoES031926
     K16R41C  C2016 09 22.31672 00 12 55.00 +07 07 01.0          21.4 RoES031926
     K16R41C  C2016 09 22.32987 00 12 55.67 +07 06 46.6          21.2 RoES031926
     K16R41C KC2016 09 24.42021 00 15 05.03 +06 29 15.9          21.4 RoES031291
     K16R41C KC2016 09 24.42598 00 15 05.31 +06 29 09.7                oES031291
     K16R41C KC2016 09 24.43176 00 15 05.63 +06 29 03.7                oES031291
 
Observer details:
291 LPL/Spacewatch II.  Observer T. H. Bressi.  1.8-m f/2.7 reflector + CCD.
926 Tenagra II Observatory.  Observers M. Schwartz, P. R. Holvorcem.  Measurer
    M. Schwartz.  0.81-m f/7 Ritchey-Chretien + CCD.
F51 Pan-STARRS 1, Haleakala.  Observers B. Gibson, T. Goggia, S. Kahale,
    A. Schultz, M. Willman.  Measurers K. Chambers, S. Chastel, L. Denneau,
    H. Flewelling, M. Huber, E. Lilly, E. Magnier, R. Wainscoat, C. Waters,
    R. Weryk.  1.8-m Ritchey-Chretien + CCD.
H21 Astronomical Research Observatory, Westfield.  Observer R. Holmes.
    Measurers S. Foglia, L. Buzzi, T. Linder, R. Holmes.  0.81-m f/4.0
    astrograph + CCD.
 
Orbital elements:
2016 RC41                                                Earth MOID = 0.2261 AU
Epoch 2016 July 31.0 TT = JDT 2457600.5                 MPC
M 353.45974              (2000.0)            P               Q
n   0.30406904     Peri.  140.75870     +0.89617176     +0.44323160
a   2.1902209      Node   192.97764     -0.42663311     +0.84804392
e   0.4395930      Incl.    5.24802     -0.12190309     +0.29046041
P   3.24           H   23.4           G   0.15           U   7
Residuals in seconds of arc
160912 F51  0.1+  0.0     160913 H21  0.4-  0.3-    160924 291  0.0   0.1-
160912 F51  0.0   0.0     160913 H21  0.5-  0.1-    160924 291  0.3-  0.1-
160912 F51  0.2+  0.0     160922 926  0.1-  0.2-    160924 291  0.0   0.2+
160912 F51  0.2-  0.0     160922 926  0.5+  0.2+
160913 H21  0.5-  0.2+    160922 926  0.2+  0.1+

Ephemeris:
2016 RC41                a,e,i = 2.19, 0.44, 5                   q = 1.2274
Date    TT    R. A. (2000) Decl.     Delta      r     Elong.  Phase     V
2016 08 25    23 28 26.1 +13 45 31   0.2445  1.2279   149.6    24.6    21.9
...
2016 09 09    23 55 40.5 +10 58 49   0.2466  1.2420   160.2    16.0    21.7
...
2016 09 17    00 06 46.4 +08 43 08   0.2573  1.2571   167.0    10.3    21.6
...
2016 09 23    00 13 38.4 +06 54 57   0.2700  1.2716   172.4     6.0    21.5
2016 09 24    00 14 40.5 +06 37 01   0.2725  1.2742   173.3     5.3    21.5
2016 09 25    00 15 41.0 +06 19 13   0.2752  1.2770   174.2     4.6    21.5
...
2016 10 01    00 21 13.6 +04 36 47   0.2939  1.2948   177.5     1.9    21.5
...
2016 10 09    00 27 44.2 +02 39 29   0.3261  1.3222   171.5     6.4    22.1
...
2016 10 24    00 39 21.0 +00 21 55   0.4095  1.3830   158.1    15.5    23.0

A. U. Tomatic                (C) Copyright 2016 MPC           M.P.E.C. 2016-S31




More information about the Iaude mailing list